DW3588 Weather Reports


Display with metric or nautical units.
time (UTC)temp
F
wind
direction
speed
MPH
gust
MPH
rain 1hr
in
rain 24hr
in
rain mn
in
humidity
%
barometer
mb
20260503021326 66 248 6.0 11.0 0.00 0.00 0.00 61 1009.0
20260503020827 66 257 6.0 11.0 0.00 0.00 0.00 60 1009.0
20260503020546 66 261 6.0 13.0 0.00 0.00 0.00 60 1009.0
20260503015828 67 235 6.0 13.0 0.00 0.00 0.00 59 1008.9
20260503015325 67 200 7.0 13.0 0.00 0.00 0.00 59 1009.0
20260503014825 68 298 7.0 11.0 0.00 0.00 0.00 58 1009.1
20260503014314 68 260 6.0 11.0 0.00 0.00 0.00 57 1009.0
20260503013812 69 240 5.0 9.0 0.00 0.00 0.00 57 1009.0
20260503013307 69 274 6.0 11.0 0.00 0.00 0.00 57 1009.0
20260503012809 69 247 6.0 11.0 0.00 0.00 0.00 56 1009.0
20260503012308 69 270 5.0 10.0 0.00 0.00 0.00 56 1009.0
20260503011808 70 219 5.0 10.0 0.00 0.00 0.00 55 1009.0
20260503011306 70 257 6.0 13.0 0.00 0.00 0.00 55 1009.0
20260503010805 70 277 8.0 13.0 0.00 0.00 0.00 55 1009.0
20260503010748 70 261 7.0 13.0 0.00 0.00 0.00 54 1009.0
20260503010027 71 277 6.0 15.0 0.00 0.00 0.00 54 1009.1
20260503005306 71 269 7.0 15.0 0.00 0.00 0.00 54 1009.0
20260503004805 71 254 7.0 13.0 0.00 0.00 0.00 53 1009.1
20260503004306 71 280 7.0 14.0 0.00 0.00 0.00 52 1009.1
20260503003804 72 251 7.0 14.0 0.00 0.00 0.00 53 1009.1
20260503003304 72 304 7.0 12.0 0.00 0.00 0.00 53 1009.0
20260503002804 72 262 7.0 13.0 0.00 0.00 0.00 52 1009.0
20260503002520 72 243 7.0 13.0 0.00 0.00 0.00 53 1009.0
20260503001759 72 243 7.0 15.0 0.00 0.00 0.00 52 1009.1
20260503001256 73 268 8.0 15.0 0.00 0.00 0.00 51 1009.1
20260503000756 73 336 7.0 14.0 0.00 0.00 0.00 51 1009.1
20260503000255 73 294 7.0 14.0 0.00 0.00 0.00 51 1009.1
20260502235754 73 269 7.0 14.0 0.00 0.00 0.00 51 1009.2
20260502235736 73 269 7.0 12.0 0.00 0.00 0.00 50 1009.2
20260502235009 73 252 7.0 13.0 0.00 0.00 0.00 51 1009.3
20260502234252 74 252 7.0 13.0 0.00 0.00 0.00 50 1009.3
20260502233750 74 263 6.0 12.0 0.00 0.00 0.00 49 1009.3
20260502233250 74 265 6.0 11.0 0.00 0.00 0.00 49 1009.4
20260502232748 74 270 7.0 12.0 0.00 0.00 0.00 49 1009.5
20260502232246 74 275 7.0 12.0 0.00 0.00 0.00 49 1009.5
20260502231743 74 286 7.0 12.0 0.00 0.00 0.00 49 1009.5
20260502231240 75 304 7.0 13.0 0.00 0.00 0.00 47 1009.6
20260502230739 75 269 7.0 13.0 0.00 0.00 0.00 47 1009.6
20260502230506 75 274 7.0 12.0 0.00 0.00 0.00 46 1009.8
20260502225737 75 313 6.0 12.0 0.00 0.00 0.00 46 1009.8
20260502224738 76 286 6.0 12.0 0.00 0.00 0.00 45 1010.0
20260502224237 76 270 7.0 12.0 0.00 0.00 0.00 45 1010.0
20260502223959 76 262 7.0 12.0 0.00 0.00 0.00 44 1010.2
20260502223238 76 267 6.0 11.0 0.00 0.00 0.00 45 1010.3
20260502222738 77 271 6.0 12.0 0.00 0.00 0.00 45 1010.3
20260502222236 76 279 6.0 12.0 0.00 0.00 0.00 45 1010.4
20260502222001 76 266 6.0 12.0 0.00 0.00 0.00 46 1010.5
20260502221235 76 262 7.0 13.0 0.00 0.00 0.00 44 1010.5
20260502220735 76 254 7.0 13.0 0.00 0.00 0.00 45 1010.5
20260502220235 76 215 6.0 14.0 0.00 0.00 0.00 45 1010.5
20260502215734 76 268 5.0 14.0 0.00 0.00 0.00 45 1010.5
20260502215234 76 284 5.0 12.0 0.00 0.00 0.00 46 1010.6
20260502215216 76 248 5.0 13.0 0.00 0.00 0.00 46 1010.6
20260502214235 76 273 5.0 13.0 0.00 0.00 0.00 46 1010.6
20260502213734 76 334 4.0 12.0 0.00 0.00 0.00 46 1010.7
20260502213233 76 346 4.0 12.0 0.00 0.00 0.00 46 1010.7
20260502212735 76 223 5.0 13.0 0.00 0.00 0.00 47 1010.7
20260502212453 76 307 6.0 13.0 0.00 0.00 0.00 47 1010.8
20260502211734 75 281 5.0 11.0 0.00 0.00 0.00 47 1010.9
20260502211233 75 288 4.0 10.0 0.00 0.00 0.00 49 1011.0
20260502210731 75 285 5.0 10.0 0.00 0.00 0.00 48 1011.0
20260502210230 76 234 5.0 11.0 0.00 0.00 0.00 47 1011.1
20260502205728 76 245 4.0 11.0 0.00 0.00 0.00 47 1011.2
20260502205228 76 267 5.0 14.0 0.00 0.00 0.00 49 1011.2
20260502204727 76 217 6.0 14.0 0.00 0.00 0.00 48 1011.3
20260502204455 76 256 4.0 11.0 0.00 0.00 0.00 47 1011.3
20260502203724 76 272 3.0 8.0 0.00 0.00 0.00 48 1011.4
20260502203223 75 244 3.0 8.0 0.00 0.00 0.00 49 1011.4
20260502202941 76 251 3.0 8.0 0.00 0.00 0.00 49 1011.5
20260502202438 75 267 3.0 8.0 0.00 0.00 0.00 49 1011.6
20260502201935 75 261 4.0 10.0 0.00 0.00 0.00 50 1011.7
20260502201216 74 303 4.0 10.0 0.00 0.00 0.00 50 1011.7
20260502200716 75 207 4.0 11.0 0.00 0.00 0.00 51 1011.8
20260502200213 74 236 4.0 11.0 0.00 0.00 0.00 51 1011.9
20260502195714 73 234 4.0 10.0 0.00 0.00 0.00 52 1011.9
20260502195213 73 196 4.0 10.0 0.00 0.00 0.00 51 1011.8
20260502194713 73 221 5.0 10.0 0.00 0.00 0.00 52 1011.9
20260502194214 73 279 6.0 11.0 0.00 0.00 0.00 52 1011.9
20260502193711 72 273 5.0 11.0 0.00 0.00 0.00 53 1011.9
20260502193212 73 265 5.0 9.0 0.00 0.00 0.00 54 1012.0
20260502192711 72 263 4.0 11.0 0.00 0.00 0.00 53 1012.0
20260502192207 71 261 3.0 11.0 0.00 0.00 0.00 55 1012.0
20260502191707 70 244 3.0 8.0 0.00 0.00 0.00 58 1012.0
20260502191206 71 274 4.0 10.0 0.00 0.00 0.00 56 1012.0
20260502190708 70 272 4.0 10.0 0.00 0.00 0.00 57 1012.1
20260502190204 70 242 5.0 10.0 0.00 0.00 0.00 57 1012.1
20260502185705 68 313 5.0 11.0 0.00 0.00 0.00 60 1012.1
20260502185205 68 264 5.0 11.0 0.00 0.00 0.00 60 1012.2
20260502184705 68 236 5.0 10.0 0.00 0.00 0.00 60 1012.2
20260502184206 68 279 4.0 10.0 0.00 0.00 0.00 59 1012.2
20260502183705 67 244 4.0 8.0 0.00 0.00 0.00 60 1012.2
20260502183205 68 242 4.0 9.0 0.00 0.00 0.00 60 1012.2
20260502182702 67 267 5.0 10.0 0.00 0.00 0.00 61 1012.3
20260502182644 67 278 4.0 10.0 0.00 0.00 0.00 62 1012.2
20260502181659 67 315 4.0 7.0 0.00 0.00 0.00 62 1012.2
20260502181639 66 273 4.0 9.0 0.00 0.00 0.00 63 1012.3
20260502180655 66 294 3.0 9.0 0.00 0.00 0.00 62 1012.3
20260502180154 65 280 3.0 8.0 0.00 0.00 0.00 63 1012.2
20260502170135 66 111 2.0 7.0 0.00 0.00 0.00 66 1011.9
20260502163635 64 306 1.0 5.0 0.00 0.00 0.00 68 1012.0
20260502163135 63 307 2.0 5.0 0.00 0.00 0.00 69 1012.0
20260502162632 63 317 2.0 4.0 0.00 0.00 0.00 70 1012.0
20260502162131 63 300 2.0 4.0 0.00 0.00 0.00 70 1011.9
20260502161631 62 319 2.0 4.0 0.00 0.00 0.00 71 1011.8
20260502161131 62 47 1.0 5.0 0.00 0.00 0.00 72 1011.8
20260502160631 62 48 2.0 5.0 0.00 0.00 0.00 72 1011.8
20260502160344 62 288 1.0 3.0 0.00 0.00 0.00 73 1011.7
20260502152118 59 306 1.0 4.0 0.00 0.00 0.00 79 1011.3
20260502151620 58 258 2.0 4.0 0.00 0.00 0.00 80 1011.3
20260502151118 58 296 1.0 3.0 0.00 0.00 0.00 80 1011.3
20260502150615 58 298 1.0 3.0 0.00 0.00 0.00 81 1011.2
20260502150114 57 348 1.0 3.0 0.00 0.00 0.00 81 1011.1
20260502140104 55 302 0.0 1.0 0.00 0.00 0.00 81 1011.2
20260502130555 55 306 1.0 4.0 0.00 0.00 0.00 81 1010.5
20260502123547 55 304 0.0 0.0 0.00 0.00 0.00 82 1010.4
20260502123046 55 304 0.0 1.0 0.00 0.00 0.00 81 1010.4
20260502122544 55 304 0.0 2.0 0.00 0.00 0.00 81 1010.4
20260502122306 56 304 0.0 2.0 0.00 0.00 0.00 81 1010.4
20260502121809 56 304 1.0 2.0 0.00 0.00 0.00 80 1010.4
20260502121301 56 304 1.0 2.0 0.00 0.00 0.00 80 1010.3
20260502120539 56 304 0.0 2.0 0.00 0.00 0.00 79 1010.3
20260502115538 56 304 1.0 3.0 0.00 0.00 0.00 78 1010.3
20260502115038 56 304 0.0 3.0 0.00 0.00 0.00 78 1010.2
20260502114537 56 304 0.0 0.0 0.00 0.00 0.00 77 1010.3
20260502114038 56 304 0.0 1.0 0.00 0.00 0.00 76 1010.4
20260502113536 56 304 0.0 1.0 0.00 0.00 0.00 76 1010.3
20260502113234 57 304 0.0 1.0 0.00 0.00 0.00 76 1010.4
20260502113118 56 304 0.0 1.0 0.00 0.00 0.00 76 1010.5
20260502112031 57 304 0.0 1.0 0.00 0.00 0.00 76 1010.5
20260502111530 57 304 0.0 1.0 0.00 0.00 0.00 75 1010.5
20260502111250 57 304 0.0 1.0 0.00 0.00 0.00 74 1010.5
20260502110528 57 304 0.0 2.0 0.00 0.00 0.00 74 1010.5
20260502110029 57 304 0.0 2.0 0.00 0.00 0.00 74 1010.5
20260502105530 58 304 0.0 2.0 0.00 0.00 0.00 74 1010.6
20260502105025 58 304 0.0 2.0 0.00 0.00 0.00 73 1010.5
20260502104525 58 304 0.0 0.0 0.00 0.00 0.00 73 1010.6
20260502104022 58 304 0.0 2.0 0.00 0.00 0.00 73 1010.6
20260502103520 58 304 1.0 2.0 0.00 0.00 0.00 72 1010.6
20260502103021 58 304 1.0 3.0 0.00 0.00 0.00 72 1010.5
20260502102520 58 304 1.0 3.0 0.00 0.00 0.00 72 1010.5
20260502102020 59 304 2.0 3.0 0.00 0.00 0.00 71 1010.4
20260502101521 59 304 2.0 3.0 0.00 0.00 0.00 70 1010.5
20260502101017 59 304 2.0 4.0 0.00 0.00 0.00 70 1010.4
20260502100517 59 300 2.0 4.0 0.00 0.00 0.00 70 1010.4
20260502100236 60 298 2.0 4.0 0.00 0.00 0.00 70 1010.5
20260502091503 61 288 1.0 4.0 0.00 0.00 0.00 67 1010.6
20260502091001 61 251 0.0 2.0 0.00 0.00 0.00 67 1010.7
20260502090458 61 250 0.0 3.0 0.00 0.00 0.00 67 1010.7
20260502090222 61 250 1.0 4.0 0.00 0.00 0.00 66 1010.6
20260502071410 62 242 3.0 8.0 0.00 0.00 0.00 59 1010.9
20260502070909 62 239 1.0 7.0 0.00 0.00 0.00 57 1011.0
20260502070625 62 257 1.0 6.0 0.00 0.00 0.00 56 1011.0
20260502065908 62 257 1.0 6.0 0.00 0.00 0.00 56 1011.0
20260502065407 62 202 1.0 2.0 0.00 0.00 0.00 55 1011.0
20260502064907 63 202 1.0 3.0 0.00 0.00 0.00 54 1011.0
20260502064406 63 202 1.0 3.0 0.00 0.00 0.00 54 1011.0
20260502063904 62 196 1.0 3.0 0.00 0.00 0.00 54 1011.0
20260502063404 62 195 0.0 2.0 0.00 0.00 0.00 54 1011.1
20260502062902 62 195 0.0 2.0 0.00 0.00 0.00 54 1011.1
20260502062403 62 195 0.0 2.0 0.00 0.00 0.00 54 1011.2
20260502061856 63 195 0.0 2.0 0.00 0.00 0.00 54 1011.2
20260502061357 63 195 0.0 2.0 0.00 0.00 0.00 54 1011.2
20260502060854 63 195 1.0 3.0 0.00 0.00 0.00 53 1011.2
20260502060353 63 195 1.0 3.0 0.00 0.00 0.00 53 1011.2
20260502055847 63 195 0.0 3.0 0.00 0.00 0.00 53 1011.2
20260502055348 64 194 1.0 3.0 0.00 0.00 0.00 53 1011.2
20260502054848 64 194 2.0 3.0 0.00 0.00 0.00 53 1011.2
20260502054348 65 195 2.0 3.0 0.00 0.00 0.00 51 1011.2
20260502053848 65 277 2.0 4.0 0.00 0.00 0.00 50 1011.1
20260502053609 66 284 2.0 4.0 0.00 0.00 0.00 47 1011.1
20260502052846 66 305 1.0 4.0 0.00 0.00 0.00 47 1011.2
20260502052345 66 257 1.0 3.0 0.00 0.00 0.00 47 1011.2
20260502051845 67 256 1.0 4.0 0.00 0.00 0.00 47 1011.2
20260502051340 67 253 2.0 5.0 0.00 0.00 0.00 46 1011.2
20260502050840 67 254 2.0 5.0 0.00 0.00 0.00 46 1011.2
20260502050338 67 252 1.0 4.0 0.00 0.00 0.00 47 1011.1
20260502045838 68 259 1.0 3.0 0.00 0.00 0.00 47 1011.2
20260502045338 68 259 1.0 4.0 0.00 0.00 0.00 46 1011.2
20260502044838 69 273 2.0 4.0 0.00 0.00 0.00 45 1011.1
20260502044337 69 274 3.0 7.0 0.00 0.00 0.00 44 1011.1
20260502043835 69 293 3.0 7.0 0.00 0.00 0.00 45 1011.0
20260502043334 69 302 3.0 9.0 0.00 0.00 0.00 46 1011.0
20260502042833 69 283 4.0 9.0 0.00 0.00 0.00 46 1011.0
20260502042332 69 306 4.0 8.0 0.00 0.00 0.00 47 1010.9
20260502042105 69 265 3.0 7.0 0.00 0.00 0.00 47 1010.9
20260502041332 70 281 4.0 8.0 0.00 0.00 0.00 47 1010.8
20260502040830 70 307 4.0 8.0 0.00 0.00 0.00 47 1010.8
20260502040549 70 292 4.0 8.0 0.00 0.00 0.00 47 1010.7
20260502040050 70 315 3.0 8.0 0.00 0.00 0.00 47 1010.6
20260502035327 70 286 2.0 7.0 0.00 0.00 0.00 47 1010.5
20260502034824 70 314 2.0 8.0 0.00 0.00 0.00 49 1010.4
20260502034812 71 329 3.0 8.0 0.00 0.00 0.00 49 1010.4
20260502033823 71 307 4.0 8.0 0.00 0.00 0.00 50 1010.3
20260502033322 71 281 3.0 8.0 0.00 0.00 0.00 50 1010.3
20260502032821 71 315 3.0 9.0 0.00 0.00 0.00 51 1010.2
20260502032318 72 298 3.0 9.0 0.00 0.00 0.00 51 1010.1
20260502031818 72 290 3.0 7.0 0.00 0.00 0.00 51 1010.1
20260502031318 73 298 3.0 7.0 0.00 0.00 0.00 50 1010.1
20260502030816 74 305 3.0 8.0 0.00 0.00 0.00 49 1010.1
20260502030314 74 311 4.0 9.0 0.00 0.00 0.00 48 1010.0
20260502025814 75 278 4.0 9.0 0.00 0.00 0.00 48 1010.0
20260502025313 75 318 4.0 8.0 0.00 0.00 0.00 47 1010.0
20260502024815 76 296 4.0 9.0 0.00 0.00 0.00 47 1010.0
20260502024314 76 304 4.0 9.0 0.00 0.00 0.00 45 1010.0
20260502023810 76 307 4.0 8.0 0.00 0.00 0.00 45 1010.0
20260502023308 76 270 4.0 8.0 0.00 0.00 0.00 45 1009.9
20260502022807 77 289 4.0 8.0 0.00 0.00 0.00 45 1009.9
20260502022306 77 294 3.0 8.0 0.00 0.00 0.00 44 1009.9
20260502022033 78 289 3.0 8.0 0.00 0.00 0.00 43 1009.8